Content
SEND FEEDBACK

Daily
Averages
Monthly
Summary
United States of America

OTTERTAIL, MINNESOTA


Home > North America > United States > Minnesota
Elevation: 1356 feet     Latitude: 46 25N     Longitude: 095 34W

WEATHER
 
SELECT A DAY
Number of Records: 458,349;   Date Range: 1/1/95 - 7/27/14
 
SHARE

PRINT THIS DATA

[ ← Previous Day ]
WEATHER ALMANAC - JANUARY 3, 2013
[ Next Day → ]
[ °C ]   °F
Weather ElementAverageHighLow
Temperature6.8 °F19.4 °F (3:33 pm)-4 °F (7:33 am)
Dewpoint3.1 °F15.8 °F (3:33 pm)-7.6 °F (6:33 am)
Humidity84.7 %92 % (5:53 pm)78 % (5:13 am)
Barometer30.17 in30.27 in (5:53 am)30.00 in (10:33 pm)
Wind Speed8.9 mph18.4 mph (1:33 am)
Wind Gust26.5 mph (3:33 am)
Weather ElementAverage
Visibility8.4 mi
Wind DirectionWSW (233 °)

Weather ElementTotal
Precipitation---
Heating Degree Days57.3 (Base 65)
Averaged from 70 records on January 3, 2013
WEATHER CONDITIONS BREAKOUT
WIND DIRECTION BREAKOUT
WEATHER BY HOUR - JANUARY 3, 2013
[ °C ]   °F
Local TimeTemperatureDewpointHumidityBarometerVisibilityWind DirectionWind SpeedGust SpeedPrecipitationEventsConditions
12:33 AM3.2 °F-0.4 °F85 %30.20 in10.0 miNNW (330°)15.0 mph20.7 mphOvercast
1:13 AM3.2 °F-0.4 °F85 %30.21 in10.0 miNNW (330°)13.8 mphOvercast
1:33 AM3.2 °F-0.4 °F85 %30.21 in7.0 miNNW (330°)18.4 mphOvercast
1:53 AM3.2 °F-0.4 °F85 %30.21 in7.0 miNNW (330°)16.1 mphOvercast
2:13 AM3.2 °F-0.4 °F85 %30.21 in4.0 miNNW (340°)18.4 mphOvercast
2:33 AM3.2 °F-0.4 °F85 %30.22 in3.0 miNNW (330°)18.4 mphOvercast
2:53 AM3.2 °F-0.4 °F85 %30.23 in3.0 miNNW (330°)12.7 mphSnowLight Snow
3:13 AM3.2 °F-0.4 °F85 %30.24 in5.0 miNNW (330°)16.1 mph25.3 mphOvercast
3:33 AM3.2 °F-0.4 °F85 %30.25 in5.0 miNNW (330°)12.7 mph26.5 mphOvercast
3:53 AM3.2 °F-0.4 °F85 %30.25 in4.0 miNNW (330°)16.1 mphSnowLight Snow
4:13 AM1.4 °F-2.2 °F85 %30.26 in10.0 miNNW (330°)13.8 mphOvercast
4:33 AM-0.4 °F-4.0 °F85 %30.26 in10.0 miNNW (330°)10.4 mphScattered Clouds
4:53 AM-0.4 °F-4.0 °F85 %30.26 in10.0 miNNW (330°)9.2 mphClear
5:13 AM-0.4 °F-5.8 °F78 %30.26 in10.0 miNNW (330°)10.4 mphClear
5:33 AM-0.4 °F-5.8 °F78 %30.26 in10.0 miNNW (330°)8.1 mphClear
5:53 AM-2.2 °F-5.8 °F85 %30.27 in10.0 miNNW (330°)6.9 mphClear
6:13 AM-2.2 °F-5.8 °F85 %30.27 in10.0 miNNW (330°)9.2 mphClear
6:33 AM-2.2 °F-7.6 °F78 %30.27 in10.0 miNNW (340°)6.9 mphClear
6:53 AM-2.2 °F-5.8 °F85 %30.27 in10.0 miNNW (330°)6.9 mphClear
7:13 AM-2.2 °F-5.8 °F85 %30.27 in10.0 miNNW (340°)6.9 mphClear
7:33 AM-4.0 °F-7.6 °F85 %30.27 in10.0 miNW (310°)5.8 mphClear
7:53 AM-4.0 °F-7.6 °F85 %30.27 in10.0 miNW (320°)6.9 mphScattered Clouds
8:13 AM-2.2 °F-7.6 °F78 %30.27 in10.0 miNW (310°)4.6 mphSnowLight Snow
8:33 AM-0.4 °F-5.8 °F78 %30.27 in10.0 miCalmSnowLight Snow
8:54 AM-0.4 °F-4.0 °F85 %30.27 in7.0 miNNW (330°)4.6 mphSnowLight Snow
9:13 AM-0.4 °F-4.0 °F85 %30.27 in2.0 miWNW (290°)3.5 mphSnowLight Snow
9:33 AM1.4 °F-2.2 °F85 %30.27 in2.0 miCalmSnowLight Snow
9:53 AM1.4 °F-2.2 °F85 %30.26 in1.8 miSouth (180°)3.5 mphSnowLight Snow
10:13 AM1.4 °F-2.2 °F85 %30.26 in2.5 miCalmSnowLight Snow
10:33 AM1.4 °F-2.2 °F85 %30.26 in10.0 miSouth (180°)3.5 mphScattered Clouds
10:53 AM3.2 °F-0.4 °F85 %30.26 in10.0 miSouth (190°)3.5 mphScattered Clouds
11:13 AM3.2 °F-0.4 °F85 %30.25 in4.0 miSouth (170°)6.9 mphSnowLight Snow
11:33 AM5.0 °F-0.4 °F78 %30.24 in5.0 miSouth (180°)4.6 mphSnowLight Snow
11:53 AM6.8 °F1.4 °F79 %30.22 in4.0 miSSW (200°)6.9 mphSnowLight Snow
12:13 PM6.8 °F3.2 °F85 %30.22 in2.0 miSSW (200°)5.8 mphSnowLight Snow
12:33 PM8.6 °F3.2 °F79 %30.22 in7.0 miSSW (200°)5.8 mphSnowLight Snow
12:53 PM8.6 °F5.0 °F85 %30.20 in7.0 miSouth (180°)8.1 mphSnowLight Snow
1:13 PM10.4 °F6.8 °F85 %30.19 in7.0 miSouth (180°)5.8 mphSnowLight Snow
1:33 PM10.4 °F6.8 °F85 %30.18 in10.0 miSouth (180°)6.9 mphSnowLight Snow
1:53 PM12.2 °F8.6 °F85 %30.17 in10.0 miSSW (200°)9.2 mphOvercast
2:13 PM14.0 °F10.4 °F86 %30.16 in10.0 miSouth (180°)6.9 mphOvercast
2:33 PM15.8 °F10.4 °F79 %30.15 in10.0 miSSW (200°)8.1 mphOvercast
2:53 PM15.8 °F12.2 °F86 %30.15 in10.0 miSSW (210°)9.2 mphOvercast
3:13 PM17.6 °F14.0 °F86 %30.15 in10.0 miSW (220°)9.2 mphOvercast
3:33 PM19.4 °F15.8 °F86 %30.15 in10.0 miWSW (250°)12.7 mphOvercast
3:53 PM19.4 °F15.8 °F86 %30.16 in10.0 miWest (260°)13.8 mphOvercast
4:13 PM19.4 °F15.8 °F86 %30.15 in10.0 miWSW (240°)15.0 mphOvercast
4:33 PM19.4 °F14.0 °F80 %30.14 in10.0 miSW (230°)10.4 mphMostly Cloudy
4:53 PM15.8 °F10.4 °F79 %30.14 in10.0 miSSW (200°)9.2 mphClear
5:13 PM14.0 °F10.4 °F86 %30.12 in10.0 miSouth (190°)10.4 mphClear
5:33 PM12.2 °F8.6 °F85 %30.11 in10.0 miSouth (190°)9.2 mphClear
5:53 PM10.4 °F8.6 °F92 %30.10 in10.0 miSouth (190°)9.2 mphClear
6:13 PM10.4 °F8.6 °F92 %30.10 in10.0 miSouth (180°)9.2 mphClear
6:34 PM10.4 °F6.8 °F85 %30.09 in10.0 miSouth (180°)9.2 mphClear
6:53 PM10.4 °F6.8 °F85 %30.08 in10.0 miSouth (180°)9.2 mphClear
7:13 PM10.4 °F6.8 °F85 %30.08 in10.0 miSouth (190°)9.2 mphClear
7:33 PM8.6 °F6.8 °F92 %30.07 in10.0 miSouth (190°)8.1 mphClear
7:53 PM10.4 °F6.8 °F85 %30.06 in10.0 miSouth (190°)9.2 mphClear
8:13 PM10.4 °F6.8 °F85 %30.05 in10.0 miSouth (180°)10.4 mphClear
8:33 PM10.4 °F6.8 °F85 %30.04 in10.0 miSouth (180°)11.5 mphClear
8:53 PM12.2 °F8.6 °F85 %30.02 in10.0 miSouth (170°)10.4 mphClear
9:13 PM12.2 °F8.6 °F85 %30.02 in10.0 miSouth (180°)8.1 mphClear
9:33 PM10.4 °F8.6 °F92 %30.01 in10.0 miSouth (180°)9.2 mphClear
9:53 PM10.4 °F6.8 °F85 %30.01 in10.0 miSouth (180°)8.1 mphClear
10:13 PM10.4 °F8.6 °F92 %30.01 in10.0 miSouth (190°)6.9 mphClear
10:33 PM10.4 °F6.8 °F85 %30.00 in10.0 miSouth (180°)11.5 mphClear
10:53 PM12.2 °F8.6 °F85 %30.01 in10.0 miSouth (190°)9.2 mphClear
11:13 PM12.2 °F8.6 °F85 %30.01 in10.0 miSouth (190°)8.1 mphClear
11:33 PM10.4 °F8.6 °F92 %30.01 in10.0 miSSW (210°)6.9 mphClear
11:53 PM10.4 °F6.8 °F85 %30.01 in10.0 miSouth (180°)4.6 mphClear
Hourly data recorded from KFFM, located miles away from Ottertail, Minnesota







STORIES FROM OUR PARTNERS